CW2856 Weather Reports


Display with metric or nautical units.
time (UTC)temp
F
wind
direction
speed
MPH
gust
MPH
rain 1hr
in
rain 24hr
in
rain mn
in
humidity
%
barometer
mb
20260906180323 98 203 6.0 8.0 0.00 0.00 0.00 46 1011.5
20260906174826 99 152 4.0 12.0 0.00 0.00 0.00 39 1011.8
20260906173352 100 79 7.0 12.0 0.00 0.00 0.00 39 1012.0
20260906171813 102 68 6.0 11.0 0.00 0.00 0.00 38 1012.3
20260906170318 102 59 9.0 13.0 0.00 0.00 0.00 40 1012.6
20260906164820 100 190 5.0 13.0 0.00 0.00 0.00 41 1012.6
20260906163343 100 115 2.0 6.0 0.00 0.00 0.00 42 1012.8
20260906161830 99 232 4.0 7.0 0.00 0.00 0.00 45 1012.7
20260906160313 98 60 6.0 9.0 0.00 0.00 0.00 45 1012.9
20260906154817 98 80 5.0 9.0 0.00 0.00 0.00 46 1012.9
20260906153319 96 248 1.0 3.0 0.00 0.00 0.00 52 1012.8
20260906151822 93 247 2.0 5.0 0.00 0.00 0.00 54 1012.8
20260906150321 92 275 2.0 4.0 0.00 0.00 0.00 56 1012.7
20260906144823 91 209 1.0 3.0 0.00 0.00 0.00 58 1012.7
20260906143317 90 165 3.0 3.0 0.00 0.00 0.00 60 1012.8
20260906141819 88 165 2.0 3.0 0.00 0.00 0.00 64 1012.8
20260906140325 87 166 3.0 3.0 0.00 0.00 0.00 67 1012.8
20260906134828 84 174 3.0 5.0 0.00 0.00 0.00 71 1012.5
20260906133314 82 88 2.0 4.0 0.00 0.00 0.00 78 1012.5
20260906131817 79 24 0.0 2.0 0.00 0.00 0.00 84 1012.5
20260906130318 76 24 0.0 1.0 0.00 0.00 0.00 87 1012.4
20260906124822 75 24 0.0 0.0 0.00 0.00 0.00 89 1012.1
20260906123324 73 24 0.0 0.0 0.00 0.00 0.00 89 1011.9
20260906121851 72 24 0.0 1.0 0.00 0.00 0.00 88 1011.9
20260906120332 72 24 1.0 2.0 0.00 0.00 0.00 89 1011.7
20260906114832 71 24 1.0 1.0 0.00 0.00 0.00 88 1011.5
20260906113317 71 24 1.0 5.0 0.00 0.00 0.00 86 1011.4
20260906111821 72 9 0.0 0.0 0.00 0.00 0.00 87 1011.5
20260906110326 72 9 0.0 0.0 0.00 0.00 0.00 86 1011.4
20260906104827 73 9 0.0 0.0 0.00 0.00 0.00 86 1011.4
20260906103328 73 9 0.0 0.0 0.00 0.00 0.00 86 1011.3
20260906101816 73 9 0.0 0.0 0.00 0.00 0.00 85 1011.4
20260906100317 74 9 1.0 2.0 0.00 0.00 0.00 85 1011.2
20260906094822 74 9 0.0 0.0 0.00 0.00 0.00 85 1011.1
20260906093323 74 9 0.0 0.0 0.00 0.00 0.00 84 1011.1
20260906091827 74 9 0.0 0.0 0.00 0.00 0.00 83 1011.0
20260906090331 75 9 0.0 1.0 0.00 0.00 0.00 83 1011.0
20260906084832 75 9 0.0 1.0 0.00 0.00 0.00 82 1011.0
20260906083353 75 9 1.0 2.0 0.00 0.00 0.00 83 1010.9
20260906081819 75 9 0.0 3.0 0.00 0.00 0.00 82 1010.8
20260906080321 76 9 0.0 4.0 0.00 0.00 0.00 81 1011.0
20260906074827 76 19 2.0 3.0 0.00 0.00 0.00 81 1010.8
20260906073348 76 19 0.0 1.0 0.00 0.00 0.00 82 1010.8
20260906071850 76 19 0.0 0.0 0.00 0.00 0.00 83 1010.8
20260906070314 76 19 0.0 1.0 0.00 0.00 0.00 83 1010.9
20260906064815 76 19 0.0 0.0 0.00 0.00 0.00 81 1011.0
20260906063317 77 19 0.0 0.0 0.00 0.00 0.00 82 1011.1
20260906061825 77 19 0.0 0.0 0.00 0.00 0.00 81 1011.0
20260906060326 77 19 0.0 0.0 0.00 0.00 0.00 80 1011.3
20260906054830 77 19 0.0 1.0 0.00 0.00 0.00 79 1011.3
20260906053332 77 19 1.0 3.0 0.00 0.00 0.00 78 1011.3
20260906051814 78 19 0.0 2.0 0.00 0.00 0.00 78 1011.3
20260906050318 78 19 0.0 0.0 0.00 0.00 0.00 77 1011.3
20260906044819 78 19 0.0 1.0 0.00 0.00 0.00 77 1011.3
20260906043325 78 19 0.0 0.0 0.00 0.00 0.00 75 1011.3
20260906041829 78 19 1.0 3.0 0.00 0.00 0.00 75 1011.3
20260906040329 78 19 0.0 0.0 0.00 0.00 0.00 75 1011.3
20260906034815 78 19 0.0 2.0 0.00 0.00 0.00 74 1011.3
20260906033337 78 19 0.0 2.0 0.00 0.00 0.00 72 1011.1
20260906031818 79 20 3.0 6.0 0.00 0.00 0.00 69 1010.9
20260906030323 80 134 0.0 0.0 0.00 0.00 0.00 69 1010.7
20260906024824 81 134 0.0 0.0 0.00 0.00 0.00 68 1010.5
20260906023329 81 134 0.0 0.0 0.00 0.00 0.00 67 1010.4
20260906021832 82 134 0.0 0.0 0.00 0.00 0.00 66 1010.1
20260906020314 83 134 0.0 0.0 0.00 0.00 0.00 62 1009.9
20260906014839 84 134 0.0 0.0 0.00 0.00 0.00 61 1009.7
20260906013319 86 134 0.0 0.0 0.00 0.00 0.00 60 1009.6
20260906011827 87 134 0.0 0.0 0.00 0.00 0.00 56 1009.4
20260906010328 88 134 0.0 2.0 0.00 0.00 0.00 55 1009.3
20260906004829 91 134 0.0 2.0 0.00 0.00 0.00 52 1009.4
20260906003316 95 134 2.0 2.0 0.00 0.00 0.00 46 1009.4
20260906001819 98 134 1.0 3.0 0.00 0.00 0.00 40 1009.5
20260906000326 100 134 2.0 5.0 0.00 0.00 0.00 38 1009.5
20260905234825 101 131 2.0 6.0 0.00 0.00 0.00 37 1009.5
20260905233326 101 134 3.0 6.0 0.00 0.00 0.00 36 1009.4
20260905231813 102 120 2.0 6.0 0.00 0.00 0.00 35 1009.2
20260905230354 102 140 4.0 9.0 0.00 0.00 0.00 35 1009.2
20260905224813 104 167 2.0 4.0 0.00 0.00 0.00 35 1009.2
20260905223318 103 61 1.0 5.0 0.00 0.00 0.00 36 1009.3
20260905221822 102 15 4.0 10.0 0.00 0.00 0.00 36 1009.4
20260905220327 102 87 3.0 7.0 0.00 0.00 0.00 36 1009.5
20260905214828 102 54 3.0 6.0 0.00 0.00 0.00 36 1009.6
20260905213329 101 24 3.0 9.0 0.00 0.00 0.00 38 1009.7
20260905211816 99 65 5.0 7.0 0.00 0.00 0.00 40 1009.9
20260905210318 99 82 5.0 9.0 0.00 0.00 0.00 39 1010.2
20260905204823 101 40 5.0 10.0 0.00 0.00 0.00 38 1010.4
20260905203326 99 86 6.0 10.0 0.00 0.00 0.00 41 1010.5
20260905201828 100 24 6.0 10.0 0.00 0.00 0.00 40 1010.7
20260905200314 99 37 5.0 10.0 0.00 0.00 0.00 41 1010.7
20260905194815 100 69 7.0 11.0 0.00 0.00 0.00 40 1011.1
20260905193321 102 26 5.0 11.0 0.00 0.00 0.00 40 1011.2
20260905191846 102 274 5.0 10.0 0.00 0.00 0.00 39 1011.3
20260905190324 102 147 3.0 12.0 0.00 0.00 0.00 40 1011.6
20260905184829 102 144 5.0 10.0 0.00 0.00 0.00 38 1011.9
20260905183350 102 44 4.0 8.0 0.00 0.00 0.00 40 1012.1
20260905181813 101 198 3.0 7.0 0.00 0.00 0.00 42 1012.2